Index of /Archive.DDC2.24Dec07/My Documents

[ICO]NameLast modifiedSizeDescription

[DIR]Parent Directory  -  
[   ]216_enonprofit.pdf24-Dec-2007 01:35 1.2M 
[   ]2004onlinefundraising.pdf24-Dec-2007 01:35 92K 
[   ]AAASPressrelease1.2007.doc24-Dec-2007 01:34 35K 
[   ]AAASPressrelease1b.2007.doc24-Dec-2007 01:34 35K 
[TXT]ACTIONDELSQL24-Dec-2007 01:34 20K 
[   ]ACTIONDELSQL.124-Dec-2007 01:34 352K 
[   ]ACTIONDELSQL.224-Dec-2007 01:34 2.4M 
[TXT]ACTIONDELSQL.2a.sql24-Dec-2007 01:34 1.1M 
[TXT]ACTIONDELSQL.2b.sql24-Dec-2007 01:33 1.3M 
[   ]ACTIONRETTXT24-Dec-2007 01:33 1.9K 
[   ]ACTIONRETTXT.124-Dec-2007 01:33 17K 
[   ]ACTIONRETTXT.224-Dec-2007 01:33 221K 
[   ]ACTIONSTXT24-Dec-2007 01:33 9.0K 
[   ]ACTIONSTXT.124-Dec-2007 01:33 137K 
[   ]ACTIONSTXT.224-Dec-2007 01:33 1.1M 
[DIR]AcadLibrarians/24-Dec-2007 01:17 -  
[DIR]Advisors/24-Dec-2007 01:15 -  
[   ]Affirmations.Humanism.doc24-Dec-2007 01:32 31K 
[   ]AlfredPSloan3.doc24-Dec-2007 01:32 49K 
[   ]Amandas.names.etc.doc24-Dec-2007 01:32 161K 
[   ]Appreciation to AHA.doc24-Dec-2007 01:32 117K 
[   ]Appreciation to AHA.pdf24-Dec-2007 01:32 108K 
[DIR]ArthursNames/24-Dec-2007 01:15 -  
[TXT]Atheist.outrch.txt24-Dec-2007 01:32 4.8K 
[DIR]Attendees/24-Dec-2007 01:14 -  
[   ]BookPeople.xls24-Dec-2007 01:31 154K 
[   ]BusinessRules4DB.doc24-Dec-2007 01:29 27K 
[   ]CTABT.Darwin%20Day%20Registration%20Form.pdf24-Dec-2007 01:26 187K 
[DIR]Contacts.4events/24-Dec-2007 01:14 -  
[   ]Copy of DDCNextPhaseExpansion2.doc24-Dec-2007 01:27 107K 
[DIR]Copy of TESTBASE/24-Dec-2007 01:14 -  
[DIR]CyberLink/24-Dec-2007 01:14 -  
[   ]DARWIN2.doc24-Dec-2007 01:26 27K 
[IMG]DD1995.gif24-Dec-2007 01:23 112K 
[   ]DDC.board.8Dec05.doc24-Dec-2007 01:23 24K 
[   ]DDC.board.rpt.8Sep05.doc24-Dec-2007 01:23 25K 
[   ]DDC.monthly.costs.xls24-Dec-2007 01:23 14K 
[   ]DDC 2 revised from Irv.doc24-Dec-2007 01:23 28K 
[   ]DDC2revisedfromIrv.doc24-Dec-2007 01:23 28K 
[   ]DDC4NPCabbreviated.doc24-Dec-2007 01:23 24K 
[   ]DDC4NPCabbreviated3.doc24-Dec-2007 01:23 24K 
[   ]DDC4NPCprofile07.doc24-Dec-2007 01:23 27K 
[   ]DDC4NPCprofile07v2.doc24-Dec-2007 01:23 26K 
[   ]DDC4NPCtiming.doc24-Dec-2007 01:23 26K 
[   ]DDC4NPCtiming2.doc24-Dec-2007 01:23 28K 
[   ]DDC4NPCtiming3.doc24-Dec-2007 01:23 29K 
[TXT]DDC4NPCtiming3.htm24-Dec-2007 01:23 4.7K 
[IMG]DDC4paypal.jpg24-Dec-2007 01:23 37K 
[   ]DDCBrainstorming2007.doc24-Dec-2007 01:23 30K 
[TXT]DDCBudgetPlan.html24-Dec-2007 01:23 1.5K 
[   ]DDCFundPlan.doc24-Dec-2007 01:23 24K 
[TXT]DDCFundraisingPlan.html24-Dec-2007 01:23 478  
[   ]DDCMissionStatement.doc24-Dec-2007 01:23 24K 
[TXT]DDCMissionStatement.html24-Dec-2007 01:23 856  
[   ]DDCNextPhaseExpansion1.doc24-Dec-2007 01:23 107K 
[   ]DDCNextPhaseExpansion2.doc24-Dec-2007 01:23 107K 
[TXT]DDCNextPhaseExpansion2filt.htm24-Dec-2007 01:23 37K 
[TXT]DDCNextPhaseExpansion3filt.htm24-Dec-2007 01:23 43K 
[TXT]DDCNextPhaseExpansion3rdy.htm24-Dec-2007 01:23 29K 
[TXT]DDCNextPhaseExpansion4filt.htm24-Dec-2007 01:23 8.0K 
[TXT]DDCNextPhaseExpansion4rdy.htm24-Dec-2007 01:23 14K 
[TXT]DDCNextPhaseExpansion4rdy.html24-Dec-2007 01:23 9.5K 
[TXT]DDCNextPhaseExpansion5rdy.html24-Dec-2007 01:23 15K 
[TXT]DDCStaffingPlan.html24-Dec-2007 01:23 302  
[TXT]DDCStrategicPlan.html24-Dec-2007 01:23 926  
[   ]DDC long-term goals.doc24-Dec-2007 01:23 51K 
[   ]DDCregistrants.20Sep05.doc24-Dec-2007 01:23 33K 
[   ]DDCregs.out24-Dec-2007 01:23 2.3K 
[   ]DDCregs.try2.out24-Dec-2007 01:23 4.0K 
[   ]DDCregs.try3.out24-Dec-2007 01:23 10K 
[TXT]DDCregs.yemail.try2.txt24-Dec-2007 01:23 13K 
[TXT]DDCregs.yemail.try3.txt24-Dec-2007 01:23 9.3K 
[TXT]DDCregs.yemail.txt24-Dec-2007 01:23 15K 
[TXT]DDCregs.yemail.txtmsg.txt24-Dec-2007 01:23 12K 
[DIR]DDLogs/24-Dec-2007 01:14 -  
[TXT]DarwObit.html24-Dec-2007 01:23 81K 
[DIR]DarwObit_files/24-Dec-2007 01:14 -  
[   ]Darwin.Day.songs.doc24-Dec-2007 01:26 39K 
[   ]Darwin2.Italian.English.doc24-Dec-2007 01:26 78K 
[   ]DarwinDayinSpanish.doc24-Dec-2007 01:24 35K 
[   ]DarwinPond.exe24-Dec-2007 01:24 880K 
[TXT]Darwin_Day.htm24-Dec-2007 01:26 18K 
[DIR]Darwinites/24-Dec-2007 01:14 -  
[   ]DarwinsGod.doc24-Dec-2007 01:23 104K 
[   ]Dawkins.quote.doc24-Dec-2007 01:23 26K 
[SND]Default.rdp24-Dec-2007 01:22 1.1K 
[   ]DiscInst530.xls24-Dec-2007 01:22 72K 
[   ]Dodos Screening Info0.xls24-Dec-2007 01:22 15K 
[   ]Dover.penn.paper.doc24-Dec-2007 01:22 43K 
[DIR]Downloadables/23-Dec-2007 20:01 -  
[   ]EMayr.doc24-Dec-2007 01:21 41K 
[   ]Email_Report_bounce.pdf24-Dec-2007 01:22 432K 
[   ]Erasmus.Darwin.doc24-Dec-2007 01:21 49K 
[   ]Essential.DDC.methods.doc24-Dec-2007 01:21 119K 
[   ]Essential.info.DD.and.DDC.doc24-Dec-2007 01:21 91K 
[   ]Essential.translation.directions.doc24-Dec-2007 01:21 88K 
[DIR]EvSun320/23-Dec-2007 20:01 -  
[TXT]Feb2007daily.txt24-Dec-2007 01:21 1.9K 
[DIR]FlockofDodos/23-Dec-2007 20:00 -  
[   ]Foundations.7.7.05.doc24-Dec-2007 01:21 97K 
[   ]Generic.letter.Dec06.doc24-Dec-2007 01:21 29K 
[DIR]Gk2006BC/23-Dec-2007 19:57 -  
[   ]Harvard.Conference.pdf24-Dec-2007 01:21 666K 
[   ]Ideas.to.pursue.develop.doc24-Dec-2007 01:21 35K 
[   ]Informal Science Education.doc24-Dec-2007 01:21 37K 
[DIR]JonKing/23-Dec-2007 19:57 -  
[   ]Just.what.dont.doc24-Dec-2007 01:20 26K 
[DIR]K12.parts/23-Dec-2007 19:54 -  
[TXT]LINKS.filtered.source.html24-Dec-2007 01:19 14K 
[DIR]LINKS.filtered.source_files/23-Dec-2007 19:48 -  
[TXT]LINKS TO DARWIN-RELATED WEBSITES.htm24-Dec-2007 01:19 27K 
[TXT]LINKS TO DARWIN-RELATED WEBSITES.html24-Dec-2007 01:19 27K 
[DIR]LINKS TO DARWIN-RELATED WEBSITES_files/23-Dec-2007 19:48 -  
[   ]Mailing.list.categories.doc24-Dec-2007 01:19 21K 
[   ]MarchingSongIncompetents.doc24-Dec-2007 01:19 39K 
[DIR]Medprofs/23-Dec-2007 19:48 -  
[DIR]MindMap/23-Dec-2007 19:36 -  
[DIR]Mkpublictrans/23-Dec-2007 19:36 -  
[DIR]MozillaProfileBackupInside/23-Dec-2007 18:24 -  
[DIR]My Data Sources/23-Dec-2007 18:24 -  
[DIR]My Music/23-Dec-2007 18:24 -  
[DIR]My PSP8 Files/23-Dec-2007 18:24 -  
[DIR]My Pictures/23-Dec-2007 18:24 -  
[DIR]My Videos/23-Dec-2007 18:01 -  
[DIR]NEW2local/23-Dec-2007 17:58 -  
[DIR]NSF Application/23-Dec-2007 17:58 -  
[   ]NTEEcodes.doc24-Dec-2007 01:19 101K 
[DIR]NoDisplays/23-Dec-2007 17:58 -  
[   ]Overview.6Apr06r.doc24-Dec-2007 01:18 25K 
[DIR]PR/23-Dec-2007 17:30 -  
[   ]Penins.fndn.7705.doc24-Dec-2007 01:18 97K 
[   ]Posters2007.doc24-Dec-2007 01:18 30K 
[DIR]Professors/23-Dec-2007 17:28 -  
[   ]SMTP.prob.xcript.doc24-Dec-2007 01:18 48K 
[DIR]SSA/23-Dec-2007 17:25 -  
[DIR]SciClubs/23-Dec-2007 17:26 -  
[DIR]SciJournals/23-Dec-2007 17:26 -  
[   ]SecRational.outrch.doc24-Dec-2007 01:18 36K 
[DIR]Secret2public/23-Dec-2007 17:25 -  
[   ]SemiCoded.example.doc24-Dec-2007 01:18 26K 
[DIR]Sendrepeats/23-Dec-2007 17:25 -  
[   ]Signhere.06.doc24-Dec-2007 01:18 39K 
[   ]Signup.doc24-Dec-2007 01:18 38K 
[   ]Signup.sheet.contacts.outrch.doc24-Dec-2007 01:18 129K 
[   ]Slogans.2006.doc24-Dec-2007 01:18 29K 
[   ]Slogans.2006b.doc24-Dec-2007 01:18 29K 
[   ]Slogans.brainstorm.doc24-Dec-2007 01:18 29K 
[   ]Stationery6.envelope.doc24-Dec-2007 01:18 70K 
[   ]Stationery6.first.doc24-Dec-2007 01:18 29K 
[   ]Stationery6.subseq.doc24-Dec-2007 01:18 24K 
[   ]Stationery7.emails.doc24-Dec-2007 01:18 34K 
[DIR]Supporters/23-Dec-2007 17:25 -  
[DIR]Symantec/23-Dec-2007 17:23 -  
[DIR]TESTBASE/23-Dec-2007 17:23 -  
[   ]Templeton.ideas.doc24-Dec-2007 01:18 33K 
[TXT]Test2public.kpf24-Dec-2007 01:18 227  
[   ]Tom.Ferrick.30.years.pdf24-Dec-2007 01:18 120K 
[   ]Tom Ferrick 30 years.doc24-Dec-2007 01:18 67K 
[   ]Translators.wrksht.xls24-Dec-2007 01:18 23K 
[DIR]Unsubscribers/23-Dec-2007 17:23 -  
[   ]Urgent.Call.doc24-Dec-2007 01:18 49K 
[   ]WasDarwinWrong.doc24-Dec-2007 01:18 24K 
[   ]Web.n.visibles.doc24-Dec-2007 01:18 26K 
[   ]WhatNext.doc24-Dec-2007 01:18 20K 
[   ]WhatisSpam.doc24-Dec-2007 01:18 87K 
[   ]Wiki.DD.revision.1.doc24-Dec-2007 01:18 76K 
[   ]Wiki.DD.revision.2.doc24-Dec-2007 01:18 91K 
[   ]Wiki.DD.revision.3.doc24-Dec-2007 01:18 94K 
[TXT]Wiki.DDD.27Apr07.htm24-Dec-2007 01:18 35K 
[   ]WikiDD.8Aug07.doc24-Dec-2007 01:18 29K 
[TXT]addsercol.kpf24-Dec-2007 01:32 1.4K 
[   ]addsercol.pl24-Dec-2007 01:32 1.0K 
[   ]bookmark.template.doc24-Dec-2007 01:32 254K 
[   ]bookmark.template.pdf24-Dec-2007 01:32 104K 
[   ]bookmark.template2.doc24-Dec-2007 01:32 768K 
[   ]bookmark.template2.ott24-Dec-2007 01:32 248K 
[   ]bookmark.template2.pdf24-Dec-2007 01:32 95K 
[   ]bookmarks.disbelief.doc24-Dec-2007 01:32 224K 
[   ]bookmarks1b.doc24-Dec-2007 01:31 246K 
[   ]bookmarks4.doc24-Dec-2007 01:31 249K 
[   ]brainstorm.DD.talk.ideas.doc24-Dec-2007 01:31 32K 
[   ]brochure9p1n2.doc24-Dec-2007 01:30 1.7M 
[   ]brochure10p1n2.doc24-Dec-2007 01:31 1.5M 
[   ]brochure13coldp1n2.doc24-Dec-2007 01:31 1.5M 
[   ]brochure13p1n2.doc24-Dec-2007 01:30 1.4M 
[   ]brochure13p1n2.pdf24-Dec-2007 01:30 506K 
[   ]brochureDDC.doc24-Dec-2007 01:29 1.5M 
[   ]cirm.1Oct05.pdf24-Dec-2007 01:28 4.4M 
[TXT]contactemails.csv24-Dec-2007 01:27 5.7K 
[   ]contacts.from02.04.xls24-Dec-2007 01:27 34K 
[TXT]contacts11Feb06.kpf24-Dec-2007 01:27 3.2K 
[DIR]contacts2006/24-Dec-2007 01:14 -  
[   ]correcting.gene.doc24-Dec-2007 01:27 32K 
[   ]countries.loading.sql24-Dec-2007 01:27 1.8M 
[   ]countries.sql24-Dec-2007 01:26 13K 
[TXT]countries4php.txt24-Dec-2007 01:26 9.6K 
[TXT]countries4sql.csv24-Dec-2007 01:26 3.8K 
[   ]darwin2.pdf24-Dec-2007 01:26 6.0M 
[   ]darwind_ddc.sql24-Dec-2007 01:24 1.1M 
[   ]darwinday.intro.doc24-Dec-2007 01:24 24K 
[   ]darwindayletter3.zip24-Dec-2007 01:24 8.2K 
[IMG]darwinporta.jpg24-Dec-2007 01:23 88K 
[   ]darwinposter.pdf24-Dec-2007 01:23 258K 
[   ]decis.making.CO223052327765.pdf24-Dec-2007 01:23 963K 
[IMG]dh02.jpg24-Dec-2007 01:22 34K 
[TXT]dup.reassignments.txt24-Dec-2007 01:22 3.6K 
[   ]dup.reassignments.xls24-Dec-2007 01:22 26K 
[TXT]dups.9Jan06.txt24-Dec-2007 01:22 8.1K 
[TXT]dups.ender.kpf24-Dec-2007 01:22 1.6K 
[   ]dups.ender.pl24-Dec-2007 01:22 1.0K 
[   ]dups.ender.sql24-Dec-2007 01:22 55K 
[TXT]email.list.15Dec06.txt24-Dec-2007 01:22 1.7K 
[   ]email.sets4May05.xls24-Dec-2007 01:22 18K 
[   ]emailbase.all.06-01-03.sql24-Dec-2007 01:22 2.4M 
[TXT]emails.txt24-Dec-2007 01:21 92  
[   ]emailstest.out24-Dec-2007 01:21 48  
[TXT]emailtest.txt24-Dec-2007 01:21 46  
[   ]emarketing.doc24-Dec-2007 01:21 17K 
[   ]eowilson.letter.doc24-Dec-2007 01:21 89K 
[   ]event.flow.doc24-Dec-2007 01:21 28K 
[TXT]eventtbl.18Dec04.csv24-Dec-2007 01:21 13K 
[   ]for2005recipients.doc24-Dec-2007 01:21 32K 
[IMG]francesco.ush4566.jpg24-Dec-2007 01:21 139K 
[DIR]francescosemails/23-Dec-2007 20:00 -  
[   ]francescoxml.xml24-Dec-2007 01:21 219K 
[TXT]gathering.fields.4sql.txt24-Dec-2007 01:21 600  
[   ]hold14May.pl24-Dec-2007 01:21 3.2K 
[   ]hold14May.vpd24-Dec-2007 01:21 278  
[   ]jhj.attachments.doc24-Dec-2007 01:21 53K 
[   ]jhj.draft1.bob.doc24-Dec-2007 01:21 43K 
[   ]jhj.followup.SASE.doc24-Dec-2007 01:21 24K 
[   ]jhj.followup.envelope.doc24-Dec-2007 01:21 71K 
[   ]jhjadditional.doc24-Dec-2007 01:21 24K 
[   ]jhjdocs.doc24-Dec-2007 01:21 40K 
[   ]jhjfollowup.25jul07.doc24-Dec-2007 01:21 31K 
[   ]jhjpage1.doc24-Dec-2007 01:21 55K 
[IMG]jhjpage1.gif24-Dec-2007 01:20 38K 
[   ]jhjpage2.doc24-Dec-2007 01:20 74K 
[IMG]jhjpage2.gif24-Dec-2007 01:20 65K 
[   ]jhjpage3.doc24-Dec-2007 01:20 60K 
[IMG]jhjpage3.gif24-Dec-2007 01:20 44K 
[   ]jhjpage4.doc24-Dec-2007 01:20 63K 
[IMG]jhjpage4.gif24-Dec-2007 01:20 49K 
[   ]jhjpage5.doc24-Dec-2007 01:20 108K 
[IMG]jhjpage5.gif24-Dec-2007 01:20 112K 
[   ]junk.pl24-Dec-2007 01:20 20  
[   ]junk.vpd24-Dec-2007 01:20 278  
[TXT]language.fonts.DW.txt24-Dec-2007 01:20 514  
[   ]lincoln.darwin.1.doc24-Dec-2007 01:20 2.9M 
[   ]lincoln.darwin.1.pdf24-Dec-2007 01:19 1.4M 
[TXT]log.of.CSSd.NEWlangs.txt24-Dec-2007 01:19 2.6K 
[   ]maildom.vpd24-Dec-2007 01:19 278  
[   ]mktraceable.pl24-Dec-2007 01:19 1.1K 
[TXT]namenemail.2003only.csv24-Dec-2007 01:19 1.8K 
[   ]namenemail.2003only.xls24-Dec-2007 01:19 20K 
[   ]namenemail.xls24-Dec-2007 01:19 34K 
[   ]netgear.cfg24-Dec-2007 01:19 31K 
[   ]newsletter.4-25-07.doc24-Dec-2007 01:19 77K 
[   ]newsletter.draft.4-26-07.doc24-Dec-2007 01:19 158K 
[   ]newsletter.draft.4-26-07.pdf24-Dec-2007 01:19 180K 
[   ]noemail.butregistered.doc24-Dec-2007 01:19 36K 
[TXT]noemail.txtmsg.txt24-Dec-2007 01:19 15K 
[   ]noemails1.out24-Dec-2007 01:19 416  
[   ]outreach1.doc24-Dec-2007 01:18 35K 
[   ]outreach2.doc24-Dec-2007 01:18 34K 
[   ]outreach3.doc24-Dec-2007 01:18 39K 
[   ]outreach4.k12.doc24-Dec-2007 01:18 33K 
[DIR]picsdd2007/23-Dec-2007 17:57 -  
[   ]pre.smtp.letters.doc24-Dec-2007 01:18 35K 
[   ]printversion.pl24-Dec-2007 01:18 29  
[   ]printversion.vpd24-Dec-2007 01:18 278  
[TXT]procreturns.kpf24-Dec-2007 01:18 1.4K 
[   ]procreturns.pl24-Dec-2007 01:18 24K 
[   ]procreturns.vpd24-Dec-2007 01:18 4.8K 
[TXT]procreturns2.kpf24-Dec-2007 01:18 2.4K 
[   ]procreturns2.pl24-Dec-2007 01:18 24K 
[   ]returned.emails.xls24-Dec-2007 01:18 23K 
[   ]rfc1893.esmtp.status.codes.doc24-Dec-2007 01:18 117K 
[DIR]rmktree/23-Dec-2007 17:26 -  
[   ]saveDDlog.csh24-Dec-2007 01:18 191  
[   ]scanlog.pl24-Dec-2007 01:18 3.4K 
[   ]scanlog.pl.prebars24-Dec-2007 01:18 3.4K 
[   ]scanlog.vpd24-Dec-2007 01:18 2.2K 
[TXT]scanlogt.kpf24-Dec-2007 01:18 2.2K 
[TXT]sendit.kpf24-Dec-2007 01:18 226  
[   ]sendit.pl24-Dec-2007 01:18 6.0K 
[TXT]sendit.template.txtmsg24-Dec-2007 01:18 3.2K 
[   ]sendit.vpd24-Dec-2007 01:18 2.2K 
[   ]shortinvitation.doc24-Dec-2007 01:18 27K 
[TXT]signupsheets.csv24-Dec-2007 01:18 4.9K 
[DIR]spanishSA/23-Dec-2007 17:25 -  
[TXT]statestocodes.csv24-Dec-2007 01:18 855  
[TXT]statestocodes.kpf24-Dec-2007 01:18 1.3K 
[   ]statestocodes.pl24-Dec-2007 01:18 3.1K 
[TXT]statestocodes.txt24-Dec-2007 01:18 1.3K 
[   ]talk.diagram1.doc24-Dec-2007 01:18 31K 
[TXT]thanked18May05.txt24-Dec-2007 01:18 15K 
[TXT]thankyousApr05.txt24-Dec-2007 01:18 5.0K 
[   ]things.done.doc24-Dec-2007 01:18 37K 
[   ]things.done.jan2feb06.doc24-Dec-2007 01:18 26K 
[   ]tipping.doc24-Dec-2007 01:18 56K 
[TXT]todo.txt24-Dec-2007 01:18 10K 
[   ]transcodes.xls24-Dec-2007 01:18 16K 
[TXT]translators1.24Feb05.txt24-Dec-2007 01:18 1.4K 
[   ]unsubscribe.txt.xls24-Dec-2007 01:18 16K 
[IMG]ush4627.jpg24-Dec-2007 01:18 123K 
[   ]worktmp.doc24-Dec-2007 01:17 30K 
[IMG]www.psc.edu-~deerfiel-NIH-B-DNA.gif24-Dec-2007 01:17 46K 
[   ]~$ASPressrelease1b.2007.doc24-Dec-2007 01:35 162  
[   ]~$CNextPhaseExpansion1.doc24-Dec-2007 01:35 162  
[   ]~$erview.6Apr06r.doc24-Dec-2007 01:35 162  
[   ]~$ki.DD.revision.2.doc24-Dec-2007 01:35 162  
[   ]~$kiDD.8Aug07.doc24-Dec-2007 01:35 162  
[   ]~$sential.DDC.methods.doc24-Dec-2007 01:35 162  
[   ]~$sential.info.DD.and.DDC.doc24-Dec-2007 01:35 162  
[   ]~$sential.translation.directions.doc24-Dec-2007 01:35 162  
[   ]~WRL0592.tmp24-Dec-2007 01:35 32K 
[   ]~WRL0618.tmp24-Dec-2007 01:35 90K 
[   ]~WRL0637.tmp24-Dec-2007 01:35 32K 
[   ]~WRL0994.tmp24-Dec-2007 01:35 84K 
[   ]~WRL1480.tmp24-Dec-2007 01:35 121K 
[   ]~WRL2506.tmp24-Dec-2007 01:35 28K 
[   ]~WRL3379.tmp24-Dec-2007 01:35 76K 
[   ]~WRL3558.tmp24-Dec-2007 01:35 100K 

Apache/2.2.15 (CentOS) Server at darwinday.humanists.org Port 80